FENGYUN 1C DEB, 29849

Orbit data source: Space-Track

FENGYUN 1C DEB, 29849 is space debris in SSO originally from a launch on Mon, 10 May 1999 UTC launched from the Taiyaun Space Center, China (TSC). Fengyun 1C debris stems from the Chinese weather satellite Fengyun-1C, which was intentionally destroyed by a Chinese anti-satellite missile in 2007. This event dramatically increased the amount of space debris, with thousands of trackable fragments posing hazards to satellites and human spaceflight. The Fengyun 1C debris cloud has become a focal point in discussions about space sustainability and the need for international regulations to prevent the creation of new debris.

Loading next visibility...
Identifier
29849, 1999-025ET
Orbit
SSO
Country
Flag of CNCN / PRC
Related business
Manufacturer
Unknown
Mission
Spacecraft
Bus & Motor
Unknown
Mass
Unknown
Launch date (UTC)
1999-05-10 (27 years ago)
Launch vehicle
Unknown
Launch site
Taiyaun Space Center, China (TSC)
Object type
Payload
Rocket body
Debris
Shape & HBR
Unknown shape, 0.1 m
Radar Cross Section
Medium (>0.1 m² and <1 m²)

Expand to show TLE details & history
Last TLE update: 9 hours ago

TLE from 9 hours ago
0 FENGYUN 1C DEB
1 29849U 99025ET  26257.17791009  .00001174  00000-0  72589-3 0  9990
2 29849  99.0019 344.6689 0079255 356.8386  32.1069 14.05739341  2391
Epoch: 2026-09-14T04:16Z
TLE epoch observation values (Epoch: 2026-09-14T04:16:11.431Z)
Latitude
29.08315°
Longitude
-77.5689°
Altitude
829.002 km
Speed
7.466 km/s
True Right ascension
22h 38m 33s
True Declination
28° 56' 19"
Sunlit
Object was in full shadow at epoch
Visualization orbit readout
Latitude
Unknown
Longitude
Unknown
Altitude
Unknown
Speed
Unknown
Apparent Right ascension
Unknown
Apparent Declination
Unknown
Sunlit
N/A
Visualization observer readout
Local Sidereal Time
05:50:01
Azimuth
Unknown
Elevation
Unknown
Doppler factor
Unknown
Orbital elements
Apogee altitude
928.634 km
Perigee altitude
813.726 km
Semi-major axis
7,249.317 km
Eccentricity
0.00793
Inclination
99.0019°
RAAN
344.6689°
Arg. of periapsis
356.8386°
True anomaly
32.59368°
Mean anomaly
32.1069°
Eccentric anomaly
32.34988°
Mean motion
3.51639 °/min
Orbital period
102.38 mins
BSTAR
0.00072589
Loading maneuver chart data...
Computing Atmospheric mass density...

Documentation

Showing up to 5 results
|